User: anonymous   Login
Location: Oshawa
(43.9000°N, 78.8670°W)
Time: 20:22:53
(UTC-04:00)
Language:

CARTOSAT-1 - Orbit

View from above orbital plane
View from above orbital plane
View from above satellite
View from above satellite

Ground track
Ground track

The orbit data is extracted from the following two-line orbital elements,

1 28649U 05017A   17179.42018014 +.00000111 +00000-0 +19934-4 0  9990
2 28649 097.8600 253.6485 0002780 036.7184 323.4217 14.83451497657646
Epoch (UTC): 28 June 2017 10:05:03
Eccentricity: 0.0002780
inclination: 97.8600°
perigee height: 616 km
apogee height: 620 km
right ascension of ascending node: 253.6485°
argument of perigee: 36.7184°
revolutions per day: 14.83451497
mean anomaly at epoch: 323.4217°
orbit number at epoch: 65764

The dashed part of the orbit path shows where the satellite is in the earth's shadow,  

DLR